Theta_e
319 318 319 320 319 319 320 320 320 320 320 320 320 321 321 321 321 322 322 322 322 323 323 324 325 325 325 326 327 326 323 317 314 311 303 306 327 334 335 333 335 336 331 309 304 303 300 299 302 300 302 303 302 301 302 304 301 299 294 287 289 286 289 292 290 289 291 294 294 294 293 294 293 296 299 299 297 294 296 297 298 313 314 314 315 315 323 325
318 318 319 318 319 319 319 319 320 319 320 320 320 321 321 321 321 321 322 322 322 322 323 324 324 325 326 326 326 325 317 313 312 307 303 324 333 333 336 336 334 334 329 306 300 299 300 300 298 299 299 301 303 301 304 301 302 294 289 286 289 286 292 293 293 292 293 294 295 294 291 295 294 294 297 295 294 296 296 295 301 308 313 317 318 321 323 323
318 318 318 318 318 319 319 319 319 319 320 320 320 320 320 320 320 321 321 322 321 322 323 323 324 324 325 326 325 323 317 308 304 301 304 329 334 333 335 335 333 334 314 310 303 300 301 299 299 298 297 296 296 300 301 299 300 294 291 288 287 290 294 293 294 296 293 294 294 293 293 293 295 295 297 295 292 294 294 294 295 304 309 312 314 319 321 322
318 318 318 317 318 319 318 318 319 319 319 320 320 320 320 320 320 321 321 321 322 322 323 323 324 324 324 324 324 317 310 302 298 302 315 331 330 333 335 333 331 328 314 311 307 305 300 299 297 298 297 294 294 299 298 300 296 295 291 286 293 291 293 296 294 294 294 295 295 294 292 294 294 295 295 291 293 292 293 294 298 298 308 314 316 318 319 319
318 318 317 317 318 318 317 318 319 319 319 319 319 319 319 319 319 320 320 321 321 322 323 323 324 324 324 324 321 314 301 292 295 312 317 329 331 332 333 333 331 313 312 312 304 303 302 300 297 299 295 292 294 295 294 296 295 291 293 292 292 292 295 296 294 294 293 292 293 291 294 293 295 296 292 293 291 290 294 296 297 299 314 315 315 317 317 318
319 318 316 317 317 317 317 318 318 319 319 318 318 318 318 318 319 319 320 321 321 322 322 323 323 323 323 322 312 312 298 285 301 313 323 329 331 335 332 333 329 307 305 303 303 301 300 299 297 296 294 293 293 291 292 294 298 293 292 292 292 292 295 295 295 293 292 293 292 291 294 295 295 295 292 292 293 291 293 295 299 298 315 318 319 317 316 317
319 318 316 317 317 316 317 318 317 317 317 317 317 317 317 318 318 319 319 320 321 322 322 323 323 324 321 320 311 304 299 296 311 314 325 330 334 332 334 330 324 306 305 304 301 301 298 296 296 294 292 292 292 290 295 295 291 289 292 292 295 293 295 295 296 292 291 293 294 294 295 295 293 295 294 292 293 292 294 296 295 296 314 317 316 316 317 317
318 318 317 317 316 315 316 317 316 316 316 316 316 316 317 317 318 318 318 320 320 321 322 323 323 323 322 314 303 297 298 297 308 316 324 330 321 313 320 312 310 309 307 304 299 299 297 296 296 296 291 291 292 295 296 294 292 292 293 293 294 293 294 292 292 292 292 293 293 294 294 295 292 294 293 294 296 295 294 298 297 303 314 315 315 315 315 316
317 317 316 316 315 314 315 316 315 315 315 316 316 316 317 318 318 318 318 319 320 321 322 323 323 323 319 309 298 293 294 305 314 315 316 310 307 306 310 311 309 307 305 302 302 300 300 296 296 295 293 293 295 294 293 292 290 292 294 292 294 295 294 293 294 292 293 297 293 294 293 292 292 293 294 296 295 295 297 299 300 305 311 312 313 315 314 314
316 316 315 315 314 314 314 314 314 314 315 316 316 316 317 318 318 318 318 319 320 321 321 323 323 321 312 301 295 291 300 312 314 313 309 308 308 308 308 308 307 305 305 302 301 299 300 298 299 299 295 294 294 294 293 291 289 292 292 293 293 295 295 294 295 294 293 294 293 294 292 294 294 295 290 290 295 295 298 298 299 304 307 310 311 313 313 313
316 316 315 315 314 314 313 313 313 313 315 316 317 317 317 317 318 318 318 318 319 320 321 322 323 319 310 297 293 290 310 312 314 309 308 309 308 308 308 308 306 306 304 304 303 303 301 300 302 299 300 296 296 294 294 296 294 294 294 293 293 291 295 293 292 294 293 295 291 292 293 292 294 293 293 296 294 296 298 296 298 298 303 305 308 310 311 311
316 316 316 315 314 313 313 313 313 314 315 316 316 317 317 317 317 317 318 318 319 320 321 322 321 314 301 296 292 294 309 311 310 307 308 311 308 308 308 307 307 307 305 303 305 307 304 305 302 299 293 298 293 295 297 296 296 294 294 292 291 289 292 294 294 294 294 295 294 294 291 291 292 291 297 295 295 295 296 296 297 297 298 301 303 307 307 308
316 316 315 315 313 312 312 313 313 314 315 315 316 316 317 317 317 318 318 319 319 320 321 322 319 316 301 293 296 306 311 311 309 308 309 308 309 308 308 308 309 306 305 304 303 306 306 303 299 299 299 293 293 291 295 296 294 294 292 290 289 286 287 292 292 293 295 295 293 292 285 283 287 296 295 293 294 293 294 293 294 296 296 297 298 301 304 305
316 316 315 314 313 312 313 313 314 314 315 316 316 316 316 317 318 318 319 318 320 320 322 321 311 309 298 290 306 311 312 312 311 309 309 309 309 309 307 309 308 305 308 305 304 304 306 304 300 300 300 295 295 301 297 294 292 291 292 287 285 285 287 290 292 293 293 295 291 292 284 283 285 288 290 290 293 294 294 294 294 294 294 294 295 297 300 302
315 315 314 313 312 312 313 313 314 314 315 315 316 316 317 317 317 318 319 320 320 322 321 320 309 299 292 298 305 308 324 316 308 307 309 310 306 306 306 307 306 304 304 305 306 305 304 303 301 297 296 298 297 294 289 287 288 287 287 284 282 284 284 288 293 291 291 295 292 290 284 286 289 291 291 291 293 293 293 293 293 293 294 295 295 296 297 299
314 313 313 313 312 313 313 313 314 315 316 316 316 316 317 318 318 318 319 319 321 321 315 315 311 295 291 292 308 320 310 305 305 309 309 313 309 306 306 304 307 305 305 305 306 304 302 302 298 295 296 296 290 287 286 286 287 284 284 281 286 283 285 289 295 292 292 294 293 291 285 285 290 293 295 292 294 293 292 292 292 293 294 295 296 296 297 297
313 313 314 314 314 313 313 313 314 316 316 316 317 317 318 318 319 320 321 321 317 315 314 302 308 299 291 298 305 305 301 305 310 309 309 308 308 307 305 305 303 305 304 306 303 303 300 299 296 296 291 290 288 289 287 281 281 288 284 284 282 283 285 285 288 291 291 293 291 291 289 287 288 290 290 291 295 293 293 293 293 294 294 295 295 296 297 297
314 314 316 316 315 314 314 315 316 316 316 317 316 316 314 319 322 320 319 316 312 310 309 312 298 295 291 299 297 299 305 306 308 307 306 307 305 305 303 302 302 299 298 301 300 299 298 295 293 291 290 289 291 286 283 280 285 281 285 285 285 285 284 285 288 291 293 291 291 288 289 290 293 293 293 294 293 294 293 294 295 295 295 295 295 295 296 297
316 316 315 315 314 315 315 316 316 317 316 318 319 320 321 321 312 312 310 307 296 293 292 294 292 286 286 293 300 306 308 307 308 306 306 307 307 306 304 303 302 300 296 292 296 297 294 293 293 288 287 287 288 289 284 288 286 285 286 282 281 284 285 285 286 289 292 291 290 287 289 290 292 292 293 292 291 292 294 293 293 294 294 294 295 296 296 297
315 314 314 315 315 316 316 317 317 316 317 310 309 312 305 298 299 298 297 300 295 291 293 294 294 295 301 302 303 306 309 308 302 302 306 307 307 304 301 300 299 296 294 294 295 297 293 287 286 285 287 288 288 289 289 288 288 286 285 283 283 283 286 288 289 291 289 289 288 289 288 287 290 291 293 293 291 290 290 292 294 295 295 295 295 295 296 296
316 316 316 317 317 317 317 317 317 317 316 308 306 298 292 295 288 287 291 294 294 297 297 295 296 298 301 303 304 303 300 300 302 303 307 309 305 301 298 297 291 292 292 292 295 294 290 286 287 288 289 288 290 288 287 287 286 287 284 283 285 284 287 288 290 290 289 289 283 283 285 287 288 290 291 292 289 289 290 292 292 294 295 295 295 296 296 297
319 318 318 318 318 318 318 317 317 317 316 304 305 302 298 297 298 298 292 289 295 299 298 299 298 300 302 302 304 304 300 297 300 302 306 307 301 297 295 292 291 291 292 292 292 288 286 285 288 289 291 289 287 288 287 288 286 285 286 283 283 286 286 289 288 288 289 288 286 282 286 289 290 291 292 291 292 294 293 292 294 294 294 294 295 295 296 295
319 319 318 318 318 318 318 318 317 316 305 304 301 300 302 305 303 304 295 289 291 299 296 297 298 298 300 301 303 305 296 293 294 299 303 305 300 298 295 292 289 290 292 293 290 285 286 285 290 290 289 288 287 287 287 286 285 284 283 285 283 281 286 284 285 286 290 288 286 285 287 290 291 290 292 294 293 293 292 292 292 292 293 294 295 296 296 296
319 319 319 318 318 318 319 318 316 311 304 301 301 302 304 305 307 308 299 289 289 297 297 297 297 298 297 299 302 299 293 294 296 297 303 301 297 297 295 290 289 291 290 289 290 289 286 291 290 289 289 289 288 287 287 287 287 284 281 281 282 287 288 285 288 288 284 287 287 285 285 287 283 283 284 286 286 290 292 291 291 292 293 294 294 293 294 296
319 319 319 319 318 319 318 316 305 302 302 301 301 304 305 305 305 307 294 290 288 293 300 298 300 299 300 306 306 300 296 297 299 300 303 300 295 295 294 292 289 289 290 289 289 288 288 288 289 290 288 287 288 287 285 284 284 282 284 285 286 284 287 289 285 286 279 280 282 286 279 276 280 282 284 287 286 290 288 289 291 291 292 291 292 294 293 293
319 318 319 318 318 318 319 307 303 302 301 298 303 306 305 303 303 304 291 284 283 287 293 291 299 295 306 299 302 299 297 293 298 300 302 299 301 296 295 292 290 288 288 289 289 287 288 291 291 291 289 287 286 285 287 286 282 284 285 286 285 286 286 285 287 284 280 279 286 284 279 278 280 286 288 289 290 290 290 288 290 292 293 290 292 293 292 294
319 318 319 318 318 319 309 301 306 305 299 300 307 307 306 305 304 302 289 279 279 288 287 294 293 295 301 299 300 295 286 287 301 300 300 302 300 300 293 289 291 290 290 289 287 287 290 290 288 288 288 286 285 287 288 285 283 282 283 286 286 287 286 285 283 285 279 279 282 283 279 277 281 286 285 285 285 286 287 290 291 291 290 289 289 291 292 295
319 319 318 319 319 316 309 305 306 303 303 307 307 304 305 303 303 293 284 274 274 292 289 288 294 302 301 299 297 290 291 296 293 296 300 301 300 295 291 288 290 290 290 289 283 286 290 288 288 287 284 283 285 283 288 285 283 284 287 287 286 287 285 283 282 281 281 281 280 277 283 281 277 283 285 285 285 283 286 289 290 290 289 289 289 290 292 294
319 319 318 319 318 318 310 308 306 305 308 307 305 304 307 301 293 288 278 272 287 288 301 291 302 300 295 297 294 293 294 295 290 295 298 300 300 295 290 288 288 288 288 290 287 287 290 289 289 289 286 284 284 287 287 288 289 290 287 287 286 285 283 281 279 284 277 277 276 279 281 276 278 279 282 280 285 285 287 288 289 289 289 289 290 289 289 292
318 319 318 318 317 315 311 309 307 310 307 306 305 304 302 294 292 281 274 269 291 284 291 293 293 291 293 291 290 291 293 293 294 296 296 295 296 296 295 292 290 289 288 288 286 287 291 293 293 289 288 286 287 288 287 288 290 289 287 287 284 282 280 278 278 277 276 274 276 280 282 281 277 279 282 284 285 284 286 286 286 288 291 292 292 292 293 294
316 318 318 318 313 313 310 305 307 308 307 305 304 301 296 290 280 275 269 279 290 289 290 290 288 293 291 289 288 289 291 292 295 294 292 295 294 292 293 291 290 285 284 283 286 284 289 289 291 289 292 289 288 289 288 288 287 288 283 280 279 280 279 277 272 275 273 270 274 277 281 281 275 276 281 284 285 285 288 288 291 291 292 293 292 293 293 292
314 316 318 317 316 314 307 305 310 309 307 305 304 297 292 281 283 275 272 293 285 286 285 285 288 289 290 290 287 288 291 292 293 292 291 289 289 289 288 286 287 280 280 281 282 285 287 287 287 291 292 291 287 288 288 286 285 286 283 283 277 273 271 272 270 274 271 273 280 278 281 281 281 283 287 287 286 287 286 289 292 293 292 293 293 293 292 291
313 315 317 314 315 312 312 311 310 310 306 304 299 294 285 277 273 279 279 284 282 287 285 290 289 289 289 288 286 288 289 289 291 291 290 290 289 288 289 287 288 285 280 280 283 283 282 281 287 290 291 292 291 287 286 285 286 283 285 280 275 271 270 267 264 265 268 274 277 280 282 280 280 283 288 292 293 289 285 287 288 290 293 293 293 293 293 292
312 313 313 314 315 314 313 310 310 309 307 302 296 290 282 272 274 290 283 283 286 289 289 287 288 288 289 287 287 289 286 288 290 290 291 288 287 285 287 288 288 286 280 280 283 281 276 278 285 287 286 290 290 290 290 287 286 286 282 284 280 271 268 267 265 271 274 275 276 278 277 276 278 283 286 288 290 287 286 288 288 288 290 291 291 291 291 292
312 311 312 314 315 314 312 313 310 308 306 301 293 286 280 278 279 279 282 285 287 288 286 290 288 287 286 285 287 289 287 285 289 288 287 287 284 283 284 287 288 284 283 284 282 279 282 279 281 290 289 291 291 290 289 287 286 284 281 281 277 278 276 274 271 269 268 271 273 274 278 278 282 285 286 287 287 290 289 288 286 289 289 288 291 293 294 294
311 309 313 311 312 313 313 313 310 310 306 298 289 284 281 281 275 283 283 291 291 286 286 287 285 284 282 284 287 287 290 287 288 287 286 285 285 285 285 287 289 289 285 283 282 281 280 279 285 289 289 291 291 289 289 289 281 283 284 281 281 281 281 273 272 275 272 270 275 271 278 282 281 284 289 291 288 289 287 288 288 289 287 287 291 291 290 293
306 310 306 309 311 312 313 313 312 309 305 298 288 283 284 286 290 287 295 291 291 290 286 284 283 283 282 281 283 285 287 288 286 285 283 285 286 286 285 286 289 289 289 288 282 283 281 277 284 286 286 289 288 288 287 287 285 284 281 282 286 284 282 278 273 267 267 271 273 273 277 280 277 279 281 284 286 287 285 284 287 287 287 287 290 290 290 292
304 305 307 307 311 313 313 312 311 307 303 297 289 291 289 289 294 294 296 294 290 289 285 285 285 286 282 283 283 284 286 286 285 285 282 286 283 289 287 287 290 292 292 288 287 285 284 280 281 285 285 287 287 291 289 288 288 284 281 285 286 279 278 278 272 270 268 265 268 272 274 277 280 282 284 283 284 286 287 285 285 289 289 290 290 291 289 287
303 303 298 305 312 313 312 312 309 304 299 292 289 289 292 289 293 293 296 297 294 289 286 285 284 286 284 283 284 285 287 283 285 284 282 283 283 287 290 290 289 290 292 289 285 283 286 280 279 285 286 287 286 287 283 285 289 289 288 287 283 281 276 275 278 272 274 270 266 272 274 280 282 281 284 285 283 283 285 285 286 288 288 290 290 291 290 289
299 297 296 309 312 313 312 311 305 301 295 289 288 288 293 290 292 293 293 296 292 290 287 286 287 285 285 285 287 284 286 285 286 284 284 284 286 289 288 292 289 288 289 291 289 288 283 281 276 281 283 285 284 285 283 287 285 285 286 283 286 283 283 279 279 275 275 264 265 268 272 277 281 284 285 287 288 288 289 290 289 289 289 289 288 289 289 290
301 296 297 310 311 312 311 305 298 293 292 291 292 291 292 291 293 294 295 295 294 297 291 288 287 285 285 285 286 288 286 284 285 283 284 285 286 282 289 291 291 289 288 289 288 286 281 281 276 281 283 281 283 285 287 290 291 289 288 285 287 282 278 275 276 278 271 275 271 265 275 282 284 287 289 286 287 287 286 287 288 288 288 289 289 288 288 289
297 289 295 310 311 311 304 294 293 295 291 287 287 292 291 299 293 291 293 296 295 294 296 290 288 288 286 287 285 286 285 284 285 285 284 285 288 286 291 292 293 291 290 285 288 289 288 281 279 278 283 286 286 286 286 286 287 287 286 285 288 286 283 276 274 273 273 276 272 271 270 282 286 287 287 288 286 286 285 285 285 286 287 287 287 288 289 290
295 292 304 309 311 308 300 292 294 292 290 293 297 295 298 296 294 294 293 296 292 295 295 293 290 289 290 289 288 287 286 282 285 285 284 286 286 289 291 290 291 291 292 286 288 289 292 279 279 276 279 279 284 284 286 285 288 287 286 283 285 284 283 282 280 278 281 275 276 275 272 283 286 285 284 284 283 284 286 286 288 289 288 288 289 290 291 291
295 293 298 308 308 303 297 287 287 290 291 294 295 294 298 297 296 295 294 296 295 294 293 293 293 292 289 290 288 286 290 283 287 286 284 285 287 291 288 289 292 291 291 288 289 291 284 282 283 274 273 276 279 283 285 284 287 282 282 284 285 285 284 280 277 276 277 278 281 277 275 282 284 284 286 283 285 290 289 290 287 291 290 289 289 290 291 291
293 293 294 300 305 303 293 294 291 290 291 291 292 291 292 293 296 297 296 295 297 295 295 293 296 295 291 290 290 291 291 287 283 285 285 286 288 290 288 288 291 289 291 290 294 291 288 283 282 277 276 274 271 276 278 278 283 284 281 285 288 287 285 283 281 277 278 279 279 277 280 286 287 287 288 285 284 289 287 288 287 287 289 291 290 290 291 289
287 283 289 292 300 298 298 297 293 291 290 291 290 291 293 290 293 296 298 297 298 297 297 296 296 296 292 292 289 290 291 291 286 283 282 285 284 288 289 287 289 288 291 294 291 290 283 282 285 285 283 280 283 280 282 285 282 283 281 285 285 286 287 287 282 279 280 282 276 279 284 286 287 287 285 286 283 289 290 288 289 290 289 288 287 288 289 290
291 282 284 282 292 294 293 295 291 291 289 293 287 292 290 291 292 294 298 293 297 297 294 294 293 293 291 292 290 289 291 289 291 288 285 284 285 288 290 288 289 290 293 291 291 286 283 282 285 285 284 286 282 281 283 288 286 286 286 284 286 286 285 285 284 283 287 278 279 285 285 283 286 289 288 288 287 285 286 287 290 289 289 289 289 288 290 290
284 287 286 288 287 284 287 288 293 291 291 293 289 292 290 290 291 289 294 296 296 297 293 292 294 295 295 292 291 285 288 289 289 287 289 287 288 287 291 291 290 291 289 288 290 290 285 284 284 284 283 283 282 284 285 286 286 285 287 286 285 286 284 284 285 288 285 282 282 287 285 284 287 290 289 288 289 289 289 291 290 289 288 288 289 292 294 294
291 288 286 289 283 284 288 290 293 292 291 291 289 289 288 289 289 292 293 292 293 292 296 288 291 293 293 294 293 289 290 286 286 290 288 286 287 286 285 289 291 289 290 288 290 287 288 285 284 281 283 283 284 284 284 285 284 285 284 285 285 285 285 286 287 288 287 285 287 288 286 284 288 290 288 287 288 288 288 288 290 290 292 292 291 291 293 294
285 286 283 286 285 284 284 288 291 290 289 292 287 288 289 289 289 291 292 293 288 292 296 292 292 293 294 294 294 290 291 293 292 288 291 289 287 287 287 289 287 288 288 288 290 291 290 285 286 280 281 281 283 283 284 284 284 283 282 283 284 284 285 285 286 286 285 285 287 286 285 285 291 290 291 293 292 290 289 290 291 292 290 291 291 292 292 293
288 291 293 285 281 283 285 284 287 289 287 288 287 289 290 289 288 291 291 296 293 291 293 292 294 292 294 294 293 293 295 295 295 294 294 290 287 290 289 287 292 287 287 287 288 289 290 285 284 284 282 281 282 283 284 282 283 282 284 286 285 283 281 282 283 286 285 285 286 285 284 286 291 291 294 294 291 290 291 292 291 291 292 291 291 291 291 292
287 289 290 289 282 288 282 283 284 286 283 288 288 289 289 289 289 291 287 291 295 296 295 295 295 293 291 292 292 294 297 297 297 297 297 297 298 296 296 294 294 290 287 288 288 288 287 286 284 284 282 283 283 284 282 283 283 282 283 286 288 285 286 287 288 287 288 289 284 284 286 292 293 290 290 292 292 291 291 291 292 292 291 291 292 293 293 292
Wind_Speed
11 11 10 10 9 9 9 9 9 8 7 6 6 6 5 5 5 4 4 3 2 1 0 1 2 3 4 4 5 6 4 2 2 0 1 3 1 2 3 1 1 2 0 0 2 1 0 2 1 4 2 2 1 1 1 1 1 1 0 4 2 1 1 3 3 8 1 7 5 4 4 7 2 1 0 2 6 3 2 4 3 4 4 2 3 3 11 11
13 11 10 8 8 9 9 9 9 8 7 6 6 6 6 5 5 4 4 3 1 0 0 2 3 3 3 4 5 6 3 2 2 1 6 1 1 1 1 2 2 2 2 1 3 2 2 0 1 2 2 1 1 0 0 1 1 1 2 3 2 4 1 3 2 4 4 4 7 6 4 7 5 6 1 3 0 1 2 2 3 3 5 5 4 8 13 11
12 11 10 10 9 10 9 8 8 8 8 7 6 6 5 4 5 5 4 3 1 1 1 2 2 2 3 4 5 5 1 2 1 2 2 2 2 2 2 2 3 2 1 2 2 4 2 2 1 2 1 1 3 1 2 0 1 1 3 1 1 6 1 2 1 1 3 3 6 5 3 4 2 4 1 2 5 0 6 4 1 0 1 4 4 6 9 10
12 12 11 10 10 9 9 8 8 8 8 7 6 6 4 4 5 5 4 2 1 1 1 1 1 3 3 5 6 2 1 4 1 1 1 2 3 2 2 3 2 2 3 4 3 2 2 3 2 3 1 2 2 1 1 1 2 1 3 3 3 4 2 0 1 2 2 6 7 5 2 2 1 4 3 3 6 3 5 6 9 11 9 9 7 8 8 10
13 12 12 11 10 8 8 9 8 8 8 6 5 4 3 3 4 4 3 2 1 1 1 1 2 3 4 4 5 1 3 3 3 0 0 3 4 3 3 3 3 2 2 4 3 3 2 0 2 1 2 1 1 1 1 0 1 4 0 2 2 2 1 2 2 2 1 3 6 4 7 4 2 1 3 9 7 7 8 8 9 9 14 13 12 10 7 10
14 12 12 11 9 8 8 9 8 7 6 4 4 3 3 2 3 3 2 1 1 1 2 2 3 5 4 3 2 2 2 4 1 0 2 4 4 4 4 3 4 3 3 2 1 1 3 2 3 1 1 2 3 4 1 1 0 2 1 0 1 2 1 1 0 4 3 4 5 6 3 3 4 1 3 7 8 4 7 6 11 7 15 17 13 13 10 11
12 13 12 10 9 8 8 8 8 6 4 4 3 2 2 2 1 2 1 1 2 2 3 4 4 5 6 5 2 3 2 3 0 2 1 4 5 4 4 2 5 2 2 2 2 1 1 2 2 2 3 2 0 1 1 1 3 6 3 0 1 1 3 1 1 3 2 10 5 2 1 3 3 2 1 4 5 6 3 1 4 5 6 10 12 14 16 17
12 12 10 8 7 3 8 8 7 6 5 5 4 3 2 2 2 1 1 1 2 3 3 4 5 5 3 2 2 2 1 2 2 2 4 2 4 3 3 2 1 2 2 1 3 2 2 2 3 2 2 5 3 4 0 5 3 2 1 1 0 1 0 1 0 2 3 3 1 4 4 2 4 1 1 5 8 5 5 3 4 9 10 9 11 14 11 11
12 11 10 10 7 4 6 8 7 6 6 5 4 4 3 3 2 1 0 1 2 3 3 4 5 5 1 2 4 4 3 1 2 3 2 2 4 4 4 0 0 1 1 2 0 3 4 2 1 4 2 1 1 5 1 5 2 1 2 4 1 0 0 0 1 1 1 0 1 4 0 2 2 3 3 8 6 5 2 3 5 8 10 11 12 14 13 12
13 13 12 10 8 7 6 6 6 6 6 6 5 5 4 3 2 1 0 1 2 3 3 4 5 4 1 3 3 3 2 1 3 2 2 1 3 4 7 1 2 3 2 0 3 3 1 3 2 4 5 3 2 2 1 3 2 3 4 3 4 0 0 1 1 0 0 1 1 3 1 0 2 3 6 2 4 4 5 4 3 9 11 12 10 11 12 13
14 13 12 10 10 10 10 9 8 7 7 6 5 5 4 3 2 1 1 1 2 3 2 3 5 1 1 2 5 6 1 2 1 3 2 1 2 4 2 2 2 2 4 1 2 1 1 4 2 3 1 2 3 1 1 1 4 5 7 4 5 4 0 1 1 0 0 0 1 4 1 1 2 1 8 1 0 6 9 4 5 5 8 10 10 10 10 11
13 13 12 11 10 10 11 9 8 8 8 5 4 3 3 2 1 0 0 1 2 2 3 3 2 0 2 3 6 2 1 3 3 3 2 0 1 4 5 4 2 3 3 2 1 2 3 3 4 1 2 1 2 1 2 1 4 4 5 2 3 4 1 0 2 1 0 1 1 0 1 1 1 5 10 1 0 5 6 7 6 6 6 7 8 8 7 12
12 12 12 11 10 11 10 9 9 8 7 5 5 4 3 3 1 1 1 1 1 3 3 2 2 0 2 1 3 4 1 1 2 5 1 1 1 0 1 1 1 3 2 4 3 3 3 3 4 6 1 5 3 1 2 4 1 3 4 5 3 2 2 2 1 1 1 1 1 0 2 7 8 13 3 2 2 2 4 4 6 6 6 6 6 8 9 8
11 11 11 10 10 11 11 10 9 9 7 6 5 4 3 3 3 2 1 2 2 3 2 1 2 1 1 2 1 3 2 1 1 1 0 2 1 1 2 2 2 1 1 2 2 3 2 0 5 5 2 5 2 0 4 2 3 3 1 3 1 1 2 2 1 0 4 1 1 1 2 6 6 7 8 5 3 8 8 7 6 6 6 6 6 7 9 10
11 10 10 9 11 11 11 10 10 8 7 6 5 5 4 4 4 3 2 1 2 2 1 3 1 2 1 0 2 4 4 0 2 1 1 0 1 1 0 1 3 3 1 5 2 1 2 3 3 3 1 1 3 4 3 2 3 2 4 2 2 2 3 4 1 4 4 1 4 4 1 7 8 10 6 4 2 5 6 6 6 6 7 7 7 8 9 11
10 11 11 12 12 12 10 9 9 8 7 7 6 6 6 6 4 2 1 2 2 4 1 0 1 2 4 0 1 2 1 2 3 1 1 1 1 1 1 3 0 2 2 2 2 3 3 6 6 2 3 4 8 7 4 3 1 4 2 1 1 1 2 2 1 1 3 1 3 1 5 3 3 2 1 3 3 1 4 5 5 7 9 9 8 9 9 10
11 13 12 12 11 11 10 10 10 8 7 7 7 8 7 6 4 2 1 2 1 2 1 0 1 0 3 1 1 0 2 2 2 0 2 0 1 1 3 1 1 1 3 1 5 3 6 5 3 1 4 5 3 6 7 2 1 3 2 2 3 3 1 2 3 1 0 1 2 1 1 6 4 7 6 7 1 2 3 6 7 7 7 8 8 8 9 9
13 13 12 10 11 10 11 10 10 8 8 8 8 4 2 4 3 4 4 3 1 2 1 1 1 1 3 1 2 4 1 2 1 1 1 1 2 2 2 1 0 5 3 2 4 2 2 1 3 5 1 1 1 4 6 7 8 5 2 1 1 1 3 2 2 1 1 2 2 1 2 10 12 9 8 9 1 2 6 8 8 9 8 9 8 9 10 10
11 12 10 9 10 10 9 8 9 8 7 8 9 8 5 2 2 2 4 1 2 2 1 2 4 5 3 8 1 3 2 2 1 2 1 1 1 2 3 2 4 4 1 4 1 1 3 4 5 5 5 2 5 6 6 3 7 8 8 6 3 4 3 2 3 2 2 1 2 3 6 8 11 10 10 7 3 5 8 7 7 9 8 9 9 10 10 10
11 11 11 11 10 10 9 7 6 6 4 2 2 3 2 3 2 1 2 1 0 2 1 5 3 2 2 3 4 1 0 1 5 3 1 1 0 1 2 2 3 6 4 4 1 1 1 4 5 6 8 8 4 7 4 4 6 5 4 4 2 2 1 2 1 1 1 1 5 6 6 5 10 11 12 11 1 3 6 9 12 11 10 10 10 11 13 12
14 13 12 11 9 9 8 7 6 5 3 1 2 2 4 6 9 1 1 3 1 2 1 2 1 3 0 3 1 5 6 1 2 0 0 0 1 5 1 2 3 3 1 2 5 1 4 4 5 7 7 8 8 4 5 5 2 6 6 5 1 0 1 0 0 2 2 1 2 3 3 8 11 11 12 9 4 8 11 12 12 14 13 10 11 13 14 14
13 13 12 11 9 9 8 6 5 4 2 1 1 2 0 2 0 1 5 2 0 3 5 3 1 3 2 1 2 2 4 3 1 1 1 1 1 4 2 4 3 7 0 2 4 4 3 5 7 7 4 3 3 5 3 6 4 3 3 3 4 0 2 2 1 2 1 2 6 3 5 10 10 11 11 9 13 11 8 11 12 11 11 10 10 12 12 8
11 11 11 10 10 9 8 7 3 2 1 1 3 3 1 1 1 2 3 4 2 1 1 1 2 2 1 4 1 0 3 3 5 2 2 0 1 1 4 4 4 4 2 2 8 4 2 5 9 3 4 6 3 4 6 6 6 6 3 1 3 2 1 2 3 2 2 1 2 2 7 13 8 6 11 13 10 8 5 7 11 9 11 12 13 11 11 13
11 11 11 11 10 10 8 6 1 1 1 3 4 3 1 3 4 1 1 3 3 2 0 1 2 2 3 4 3 3 4 2 4 7 3 3 6 2 4 3 5 3 6 4 9 9 6 1 0 6 3 4 5 1 6 4 2 2 3 3 2 1 1 3 1 0 1 1 1 2 5 11 4 4 5 4 3 3 7 4 7 10 10 10 7 7 10 13
11 10 11 8 8 7 6 4 2 3 2 1 0 2 1 2 2 0 2 2 3 1 1 1 2 1 2 1 1 3 1 1 0 1 1 4 4 3 3 2 4 4 5 4 5 3 3 5 3 5 3 3 4 1 2 8 1 2 3 4 2 4 5 0 2 1 6 2 3 2 4 5 5 5 8 10 6 9 3 4 10 9 7 6 10 14 7 7
11 10 9 9 8 7 5 1 1 1 2 3 1 1 0 2 1 1 6 4 2 2 2 6 1 3 1 0 1 2 2 1 1 2 2 3 3 2 1 1 2 8 3 6 6 3 5 1 4 6 5 3 3 2 2 3 3 1 2 3 4 6 5 4 0 2 1 1 1 3 2 9 5 7 7 9 9 12 10 7 12 14 12 6 8 7 6 7
11 11 10 10 10 7 3 2 2 2 3 1 1 1 1 2 0 1 3 5 3 4 6 1 2 1 2 1 4 3 6 3 0 3 2 3 1 1 4 3 1 2 3 2 3 3 1 1 6 4 5 4 3 1 3 7 6 1 1 5 6 7 5 3 3 2 2 2 4 2 3 3 10 9 5 4 5 9 10 13 13 10 7 7 6 7 7 9
11 11 10 12 11 8 2 1 1 1 1 0 0 1 1 2 1 2 4 4 3 3 4 2 1 2 1 0 4 3 1 4 4 2 0 2 1 2 2 5 6 7 2 4 7 2 3 3 3 3 2 3 5 3 2 4 4 2 2 7 4 5 4 5 4 3 0 2 8 3 0 1 6 10 5 1 5 5 10 12 11 10 7 7 8 8 9 8
10 11 11 11 11 7 1 2 3 2 1 1 1 2 3 3 3 7 4 2 0 3 4 4 4 1 1 1 3 1 1 3 2 1 2 1 3 2 1 4 4 4 4 4 7 1 2 3 5 7 6 5 3 0 1 5 4 1 4 6 6 7 6 4 4 2 1 1 8 3 3 2 8 8 7 2 1 7 9 9 9 8 8 8 7 7 6 5
5 10 11 11 7 2 2 1 0 1 2 1 2 3 4 3 2 3 2 6 2 2 1 1 2 5 3 7 1 2 2 2 2 0 3 3 2 3 1 3 4 4 2 6 5 5 1 2 4 4 4 3 4 1 1 0 2 7 5 7 5 8 4 3 7 2 2 3 7 8 8 5 7 5 7 3 4 5 3 6 5 6 5 5 5 6 5 2
7 8 10 11 5 3 3 1 3 0 1 2 4 4 3 7 5 5 5 7 3 1 1 0 2 3 9 12 7 1 4 1 1 3 2 1 1 3 1 4 4 6 4 5 2 5 2 1 1 1 3 3 3 5 5 2 3 5 2 3 4 2 7 2 4 4 1 6 5 3 2 1 6 6 6 7 5 4 4 4 5 6 6 5 3 3 3 2
8 3 10 7 0 2 2 2 2 2 3 4 3 4 5 3 2 5 5 1 2 5 5 5 1 4 8 3 5 4 5 2 0 3 8 4 5 6 5 7 5 4 4 5 4 1 0 2 2 4 4 7 4 8 5 4 3 6 6 7 4 3 5 3 3 2 5 5 0 4 1 1 13 7 7 9 7 7 7 7 4 5 4 4 4 4 4 3
8 6 9 3 2 1 0 0 0 0 1 2 4 4 5 5 8 7 1 2 1 4 5 3 6 7 6 6 4 2 0 7 2 0 3 0 6 5 1 4 5 6 7 4 4 3 4 2 2 2 2 3 6 9 3 2 0 6 7 6 5 1 0 4 3 2 5 5 4 2 1 5 4 6 12 13 11 4 4 6 6 5 4 4 4 4 5 4
6 5 4 3 2 1 0 1 1 1 0 3 5 6 5 4 8 1 3 1 1 1 5 3 4 4 10 9 7 6 3 2 6 3 3 4 4 5 5 4 3 0 7 2 8 7 3 3 6 4 2 2 4 7 12 9 8 8 3 10 9 8 5 3 3 4 7 5 2 4 1 7 2 3 3 6 9 4 4 6 6 6 7 5 5 5 5 5
5 2 1 2 1 1 1 1 2 1 4 4 6 4 9 10 1 6 4 2 1 2 2 2 9 8 4 2 1 3 3 2 2 5 4 8 7 5 7 8 3 4 2 9 3 3 6 4 5 4 1 6 8 2 4 6 2 0 3 6 5 7 6 2 6 3 1 1 2 1 6 5 5 3 8 6 6 8 5 7 5 6 3 2 5 5 5 6
1 1 1 2 2 1 2 2 1 1 5 7 6 4 11 5 3 2 3 4 2 5 5 6 3 5 3 3 1 6 3 3 4 3 1 4 1 7 4 4 9 11 7 7 4 3 3 3 1 3 5 6 4 3 1 4 6 4 5 5 7 3 6 4 1 1 1 3 9 2 9 7 8 6 10 8 4 7 4 6 6 7 6 5 6 6 5 6
4 1 1 0 0 3 3 3 3 5 5 5 4 10 3 1 1 3 1 2 4 12 6 10 5 6 6 6 4 5 3 4 3 4 5 2 3 5 3 5 3 5 7 9 1 3 9 5 1 3 4 1 0 1 2 3 4 7 3 7 1 2 4 4 5 2 1 5 8 2 10 7 4 11 3 1 4 7 6 6 5 7 7 6 8 8 6 6
1 0 0 1 2 5 4 4 6 4 4 4 7 6 1 1 0 0 0 1 4 2 6 5 1 8 4 6 5 7 3 6 6 2 4 4 4 5 6 2 5 11 11 2 5 3 5 2 1 1 1 5 3 2 1 2 2 4 3 3 6 3 2 2 3 3 1 2 6 4 3 8 9 11 1 3 3 7 5 3 4 7 7 8 8 10 7 3
0 1 1 2 3 6 4 5 5 6 4 6 7 8 2 2 0 1 1 3 1 2 7 4 4 3 6 7 4 2 6 7 7 7 6 3 4 4 11 7 3 7 8 7 3 1 1 5 3 1 2 1 1 4 9 3 2 1 3 3 1 3 2 5 7 4 6 5 0 8 2 11 5 6 7 5 6 5 6 6 6 8 9 9 9 9 6 4
1 2 3 1 4 5 5 6 5 3 3 7 6 4 1 1 3 1 1 1 1 1 2 3 1 5 3 6 7 8 5 5 9 7 4 3 7 1 4 4 4 3 8 8 4 3 2 2 6 1 3 1 3 5 8 10 9 3 3 4 1 0 2 4 1 4 4 4 5 3 7 9 3 7 8 9 8 7 8 9 8 8 8 7 7 7 6 6
1 1 1 2 6 6 8 5 3 6 8 2 2 1 1 1 1 0 5 6 2 2 1 2 2 4 4 4 2 2 4 5 6 6 4 2 7 2 3 4 4 4 4 1 5 3 2 2 6 1 1 4 8 3 8 15 16 13 14 12 12 8 4 4 8 2 1 2 5 2 12 12 5 4 8 7 9 9 6 6 7 7 7 8 7 6 6 4
1 3 2 6 8 10 9 4 1 2 3 4 6 4 3 1 1 1 3 2 5 1 1 4 0 2 1 3 2 5 5 4 5 5 3 7 6 3 1 5 1 8 10 8 12 5 6 3 7 6 9 10 5 1 2 3 3 0 2 7 7 5 5 5 6 5 2 4 4 4 1 20 2 9 7 7 6 5 5 6 5 4 5 5 5 4 4 4
1 2 3 6 9 9 6 3 3 4 3 3 3 2 3 1 2 3 4 1 1 2 1 0 3 2 0 1 1 1 3 3 7 7 4 5 1 2 2 5 3 4 6 0 3 0 5 3 2 2 2 3 2 3 1 2 2 4 2 2 5 7 7 8 7 7 8 2 2 3 2 15 1 2 3 2 2 3 0 0 2 3 4 4 4 3 2 4
1 1 1 0 2 3 7 8 8 8 4 2 4 3 5 4 5 3 3 3 4 3 2 1 1 2 2 0 2 2 2 3 1 4 1 1 3 2 4 5 2 6 7 5 8 7 5 4 7 2 1 2 4 3 2 2 1 2 2 2 4 3 3 2 5 1 3 8 10 8 11 16 1 1 0 3 3 1 2 0 1 1 5 5 4 5 5 4
1 1 1 1 2 1 7 2 4 6 7 8 6 6 5 1 5 8 7 5 2 3 1 2 3 2 2 1 2 1 2 1 0 1 1 0 1 1 5 5 2 3 2 2 0 3 6 5 8 8 11 11 7 9 11 7 6 3 4 7 10 12 9 6 6 4 8 7 9 8 10 14 2 1 3 2 2 2 1 1 2 3 4 3 1 3 4 4
1 4 2 1 1 1 3 2 1 5 8 7 6 5 6 5 1 4 8 5 10 4 5 2 1 6 2 3 3 3 4 1 3 1 1 1 1 1 3 5 6 2 2 1 4 3 3 2 7 11 13 14 13 6 2 6 4 7 5 9 6 7 10 9 3 6 14 10 4 7 13 17 14 8 5 4 3 0 1 4 5 6 5 4 3 3 3 4
1 2 4 4 2 3 2 3 2 4 7 8 5 5 9 9 2 1 5 3 6 7 3 3 3 5 3 6 5 4 3 2 1 1 2 2 1 1 2 2 2 3 4 1 3 3 2 3 8 9 10 8 3 2 5 12 11 11 12 9 12 11 11 13 13 17 12 4 12 13 12 10 21 18 8 8 7 4 5 6 7 6 5 4 4 4 6 6
3 2 2 2 3 6 8 6 9 6 0 9 4 4 8 9 5 5 1 2 2 4 5 1 4 9 9 12 5 4 4 4 5 5 2 2 0 2 1 1 1 4 2 0 1 3 4 6 3 3 6 2 2 2 5 6 7 7 13 13 14 14 12 16 19 19 8 10 18 17 8 12 20 20 7 7 7 6 6 8 6 5 5 4 5 7 9 10
1 2 2 2 2 2 3 1 8 7 7 8 3 6 7 11 13 9 5 4 3 3 8 6 9 11 10 9 9 6 7 5 7 7 4 3 7 2 1 1 2 4 2 1 2 1 3 4 1 1 1 1 1 3 3 6 1 0 4 7 9 12 18 20 19 17 16 14 16 17 9 13 15 12 3 5 4 5 4 2 0 2 5 6 7 8 9 9
4 1 3 2 2 2 2 3 7 8 9 7 5 5 4 8 12 7 3 7 5 6 6 11 9 10 10 9 10 10 10 12 9 9 7 9 0 1 2 4 1 3 2 1 0 1 2 3 3 1 1 3 5 2 1 3 1 3 5 5 7 10 11 10 9 9 4 8 12 13 12 16 16 2 3 9 6 2 5 5 7 7 6 7 8 9 8 6
0 1 1 2 1 2 1 1 4 7 6 5 7 7 6 8 10 9 6 6 9 6 8 16 13 4 6 8 8 12 10 12 11 10 9 13 9 10 7 4 7 2 1 1 1 0 2 2 2 1 1 4 3 6 6 3 2 4 8 11 12 8 6 5 9 10 9 14 13 8 12 18 11 2 11 11 3 5 7 7 5 5 7 7 7 6 5 7
1 1 3 1 1 1 3 1 2 5 7 9 11 11 7 11 2 6 3 4 9 11 12 15 11 8 5 10 15 16 13 9 9 6 6 11 10 6 10 7 11 7 6 6 1 3 3 4 3 3 3 8 2 7 5 4 1 6 13 22 17 5 8 6 6 6 12 11 8 10 17 15 9 3 3 11 6 6 7 5 6 5 7 8 8 7 6 7
Wind_Direction
165 173 186 178 174 173 168 161 158 152 158 163 157 143 117 117 115 114 99 98 92 87 274 278 289 288 292 307 331 347 356 111 73 37 121 238 103 156 184 181 179 245 292 124 35 82 2 18 18 341 38 78 290 107 274 48 88 56 90 114 57 195 109 190 179 189 227 136 210 180 190 114 134 311 343 65 41 65 28 57 325 13 27 315 295 141 135 141
159 174 178 178 184 178 172 163 151 153 158 156 151 129 121 120 113 95 88 82 85 78 213 264 269 283 308 331 347 2 39 88 96 93 218 121 237 220 207 209 227 260 206 69 104 103 106 356 8 54 79 104 331 100 10 226 77 103 118 83 204 198 246 155 212 211 141 192 176 182 170 150 200 139 220 105 236 105 77 359 11 24 3 25 64 123 135 146
159 172 176 186 191 179 171 164 160 161 157 154 146 122 125 124 107 92 84 80 84 144 214 248 272 304 338 350 346 7 30 43 63 249 249 155 213 240 239 217 224 224 170 160 187 139 137 184 141 96 22 98 4 190 47 174 80 214 118 107 236 208 220 213 214 212 245 160 151 147 220 140 208 142 155 160 170 94 165 168 333 205 179 147 136 144 148 156
164 174 176 187 187 174 174 170 170 162 158 151 139 118 122 121 100 90 85 75 72 125 233 259 300 333 347 359 4 338 75 80 231 239 288 218 221 243 235 226 198 147 91 79 143 101 104 70 108 122 78 79 298 55 121 260 98 237 72 157 217 191 104 295 189 263 274 166 158 156 93 157 224 186 151 158 118 261 257 227 169 202 181 177 175 164 163 165
168 171 179 184 179 178 178 175 170 160 164 148 128 128 117 101 96 90 80 63 65 3 336 293 347 339 345 12 15 75 78 69 247 227 262 210 234 234 235 222 151 144 130 152 94 81 91 118 98 52 94 204 5 30 257 270 135 83 128 211 174 98 85 251 266 305 99 86 111 120 133 214 117 81 125 145 164 213 212 219 222 191 167 161 173 184 172 175
170 173 178 179 179 187 185 173 166 167 162 158 141 145 143 108 101 99 85 59 35 3 355 359 346 341 349 18 78 70 101 158 267 345 180 242 243 239 234 207 141 127 123 64 111 66 112 20 82 102 28 93 190 132 260 149 318 116 313 270 196 213 151 213 317 316 144 108 128 142 200 101 138 205 176 165 187 232 217 203 205 184 174 178 163 159 176 180
171 172 179 182 177 192 197 175 172 168 177 179 190 166 170 138 134 114 107 47 17 9 6 355 350 344 344 88 72 93 135 255 58 254 186 241 263 247 226 140 131 89 102 84 36 92 82 85 91 185 100 68 270 136 210 135 32 104 184 289 8 126 145 176 151 25 97 124 160 195 86 144 143 168 149 183 240 230 266 236 235 160 138 135 155 183 180 186
168 170 170 175 166 207 213 184 192 195 197 213 215 222 198 191 166 165 95 34 16 11 1 359 349 346 351 83 87 15 51 258 235 264 237 271 291 312 111 63 104 84 86 138 136 115 129 94 150 150 87 145 213 139 227 78 24 98 98 222 251 44 324 343 82 45 54 60 69 102 125 224 172 166 81 240 236 245 265 34 113 130 142 160 168 182 195 195
158 153 164 173 136 179 261 195 199 198 214 222 222 222 230 211 199 177 186 32 21 1 357 357 346 348 307 89 114 100 246 238 202 303 291 274 301 325 169 151 48 111 136 115 232 170 131 241 141 182 238 145 153 112 288 122 315 156 171 142 70 56 349 346 52 25 47 46 65 92 6 309 262 251 245 232 245 215 103 70 113 129 145 171 186 189 188 198
151 156 167 175 163 189 217 209 214 211 226 220 219 222 227 214 209 203 193 48 4 357 343 351 344 337 81 91 62 165 253 289 296 282 307 261 339 93 51 112 124 104 108 2 83 102 102 210 155 183 127 75 104 95 115 99 211 145 105 107 119 17 64 356 147 311 317 85 298 145 253 332 337 44 281 285 239 109 106 129 145 147 172 187 191 196 200 196
156 163 163 163 177 192 207 213 215 227 231 227 211 217 209 217 211 217 73 20 0 316 346 332 339 114 90 92 127 212 218 37 273 319 331 208 19 142 194 190 147 79 104 53 152 173 164 155 169 120 69 209 109 346 67 202 124 97 129 86 31 344 7 21 66 281 42 358 102 124 134 336 324 75 243 243 58 164 147 175 171 188 184 193 201 200 205 208
161 166 167 177 188 196 208 211 217 226 229 215 216 216 242 231 238 170 46 15 316 322 312 326 347 131 83 77 150 203 193 233 331 312 325 111 246 204 204 186 149 152 139 158 233 240 165 158 126 83 189 131 71 96 73 147 88 146 109 84 321 8 30 303 149 239 102 246 158 183 82 292 193 216 242 226 65 163 164 178 196 203 209 206 206 209 209 216
168 174 181 186 193 199 205 211 215 220 222 222 225 238 247 264 266 264 292 330 342 302 306 321 4 155 99 115 235 234 262 279 311 341 13 61 351 253 222 168 183 156 160 136 197 218 195 143 123 88 166 97 153 103 181 79 86 112 41 128 25 6 349 285 300 330 110 239 53 140 269 268 246 236 221 342 72 131 155 195 213 221 218 220 214 215 224 230
171 179 185 185 190 200 202 206 211 215 225 224 233 245 267 286 284 280 278 276 290 301 307 339 67 90 112 237 284 255 272 244 266 46 355 298 111 297 28 32 95 105 63 123 158 141 131 130 103 119 122 99 139 353 74 2 33 148 210 61 126 75 244 297 195 243 137 209 50 95 194 284 274 271 281 288 209 156 194 208 213 227 236 234 226 226 227 231
168 172 184 183 194 201 203 202 208 210 226 231 247 260 276 284 289 290 297 297 272 229 83 53 106 114 76 258 316 271 263 155 58 246 273 126 144 53 5 28 61 25 104 119 138 169 131 105 71 47 72 301 82 79 36 36 4 48 72 290 323 150 276 298 336 156 157 310 57 86 297 243 272 284 291 295 163 170 195 215 220 223 234 238 237 232 235 236
169 182 181 187 195 202 200 205 209 215 228 242 257 269 273 274 273 283 309 244 233 242 120 79 90 115 109 21 206 327 35 135 180 254 280 125 120 176 176 135 55 31 83 18 69 104 50 87 72 173 124 37 62 98 71 61 340 1 95 257 250 81 252 356 230 209 192 120 359 157 226 322 323 267 276 353 95 140 201 247 243 233 232 235 236 234 235 246
177 181 184 189 190 194 199 202 216 230 240 250 260 269 264 259 246 225 198 144 49 107 158 152 161 141 141 255 314 145 214 233 306 9 11 90 115 161 83 53 47 77 29 67 28 64 358 64 297 43 36 117 136 103 90 13 323 250 29 181 207 157 214 266 300 292 39 128 221 26 202 237 239 277 294 309 48 134 215 240 248 246 243 239 241 243 245 244
178 188 195 196 193 193 199 205 220 231 237 250 253 237 229 220 211 131 82 61 88 129 163 205 115 103 279 13 167 221 176 119 66 213 244 254 101 94 97 91 37 80 45 59 360 76 333 63 27 182 19 35 111 70 119 204 184 197 204 126 275 302 186 223 158 228 89 20 192 355 226 273 268 269 284 280 336 203 234 233 236 237 240 247 247 247 244 244
182 192 190 193 196 200 212 218 222 233 247 263 263 243 231 183 93 108 94 52 115 64 119 210 138 149 205 209 196 71 66 199 107 69 184 32 340 112 71 84 76 108 89 67 270 98 352 75 35 56 158 143 191 155 157 209 158 181 170 171 152 141 220 224 248 283 168 178 236 210 218 247 269 284 282 278 238 213 243 262 271 264 254 251 249 254 252 243
181 182 189 198 202 213 219 221 234 238 276 350 120 127 84 83 32 75 344 340 220 179 208 195 130 153 57 41 128 254 279 37 126 327 302 305 47 73 28 66 23 57 94 150 161 70 113 111 166 183 204 195 187 178 173 175 147 113 90 101 170 155 282 276 293 277 34 84 244 237 258 266 274 269 270 275 289 228 258 259 254 252 249 244 243 244 249 249
183 188 195 199 207 215 219 226 233 245 252 147 150 135 157 172 113 248 251 258 217 287 184 155 160 157 86 139 139 146 118 357 50 49 221 270 109 109 245 39 25 78 30 183 133 297 65 99 231 216 209 182 195 161 100 76 37 125 119 107 109 110 162 251 12 342 325 138 297 9 309 266 259 267 269 277 288 249 229 241 249 248 243 243 238 246 246 245
184 189 193 201 201 209 216 229 243 260 277 143 118 167 207 185 134 195 122 186 256 18 51 125 56 47 357 71 224 149 74 89 44 333 303 134 356 121 273 101 128 152 158 94 41 25 47 168 236 222 204 115 94 136 114 134 115 40 139 154 101 320 230 297 310 337 309 74 267 357 331 276 264 262 268 259 255 250 220 217 235 237 249 246 242 243 254 268
185 185 187 194 200 200 213 218 232 294 54 156 131 113 166 208 159 197 99 107 116 330 74 46 65 80 32 328 289 103 97 140 178 251 244 38 93 159 144 104 108 131 58 120 130 111 79 287 240 218 125 95 66 108 109 71 62 106 85 76 230 239 96 290 284 339 356 110 285 351 322 287 277 262 256 254 246 267 260 232 240 232 241 238 234 229 237 246
186 184 187 196 193 199 198 204 137 46 279 172 127 159 171 121 123 114 74 144 167 265 113 241 142 156 180 145 208 104 131 211 117 198 281 120 151 172 99 141 121 110 171 148 141 147 187 216 118 116 130 118 123 53 113 136 167 353 119 127 129 155 207 150 246 278 323 9 50 358 308 291 330 340 328 302 320 291 279 284 258 255 240 245 262 260 232 240
183 187 189 183 184 193 184 97 46 230 184 87 329 259 289 152 126 230 91 35 21 4 356 339 122 239 194 22 19 144 233 73 187 231 188 123 147 92 205 178 104 187 160 160 114 124 273 261 122 97 85 77 107 88 177 126 42 336 235 171 187 155 135 260 1 69 18 349 329 20 345 300 294 300 257 273 324 306 255 340 295 265 245 248 248 246 251 253
183 182 180 172 182 186 161 82 259 202 109 175 210 309 160 119 90 109 95 66 210 249 28 200 101 213 117 241 59 190 100 157 270 235 120 208 170 140 91 105 119 197 164 143 157 177 197 9 133 158 129 96 97 148 214 116 155 90 265 154 146 135 120 120 51 66 343 171 315 48 122 278 301 274 279 284 284 280 303 296 270 274 269 239 242 260 263 249
180 176 178 169 182 154 116 212 204 126 122 273 242 222 157 114 250 121 63 12 343 198 154 269 75 220 48 196 141 108 128 250 62 33 56 351 148 343 129 214 42 41 147 153 51 244 97 66 73 66 92 100 111 127 220 132 108 231 241 119 113 107 122 157 116 139 214 251 297 36 112 219 304 287 208 280 302 292 297 282 272 269 275 278 266 248 240 242
177 178 175 171 171 161 218 142 88 130 186 218 144 127 87 156 88 59 77 103 254 141 136 240 227 340 77 234 60 146 208 168 97 236 159 296 107 357 94 200 162 172 168 92 175 261 150 177 129 103 82 97 169 209 176 127 117 220 191 135 156 144 147 128 97 118 47 27 284 328 274 264 248 269 296 314 296 313 278 266 277 284 283 271 262 252 241 242
180 176 177 166 168 174 122 129 134 121 224 208 140 110 102 84 76 109 126 136 243 80 278 106 270 60 10 40 42 57 68 3 135 228 315 26 32 151 90 219 154 122 40 136 180 249 356 167 209 146 128 183 233 282 224 132 80 265 135 89 85 75 69 99 107 98 337 50 267 218 180 215 271 278 330 344 252 262 260 276 280 275 275 281 279 276 266 266
127 179 178 162 151 270 318 33 91 196 129 110 118 111 70 60 76 96 88 230 122 210 81 195 133 198 129 133 15 6 105 347 82 43 33 142 326 35 29 145 118 95 52 20 83 192 258 303 181 92 179 192 139 39 145 154 119 129 81 69 20 38 27 22 59 86 54 278 253 209 202 172 285 267 226 170 210 202 267 301 287 292 298 282 267 259 274 280
66 172 176 149 161 192 128 29 268 186 128 106 102 65 74 42 119 108 184 228 61 77 44 129 180 71 146 155 156 320 81 34 58 131 106 359 9 42 149 40 49 55 58 17 45 328 10 356 100 305 82 107 98 81 12 51 73 116 84 118 47 340 13 30 349 38 138 266 266 300 239 103 210 290 287 242 270 243 223 258 300 308 301 293 296 299 290 296
19 102 173 161 201 177 141 216 228 138 165 134 80 73 96 111 354 177 207 358 149 197 154 182 275 147 169 116 83 160 140 47 41 153 148 172 155 149 207 151 155 96 223 182 204 335 9 84 287 329 192 123 99 82 357 9 10 79 86 60 120 252 35 299 16 261 221 218 266 349 204 29 246 219 282 289 265 256 209 220 293 311 287 295 302 277 261 264
12 25 156 126 55 107 247 283 17 91 109 73 73 59 86 113 198 209 142 209 246 130 236 121 170 161 151 116 164 154 353 147 222 127 95 78 144 230 232 160 180 137 191 221 100 104 270 289 351 290 7 232 134 120 155 91 248 109 142 143 106 134 137 250 277 236 304 291 268 340 72 257 272 283 225 234 249 220 214 235 260 252 234 241 265 296 304 302
8 16 128 198 133 138 285 49 23 40 73 47 84 71 52 152 233 82 135 190 181 31 100 123 90 82 153 167 193 163 113 290 153 194 132 151 132 194 255 269 148 128 80 157 161 180 138 305 262 139 246 186 179 161 174 170 167 207 119 152 178 148 162 208 193 213 227 218 294 278 81 231 118 241 290 256 278 286 235 256 266 253 252 284 282 280 288 285
338 13 78 94 99 33 67 39 65 93 83 71 66 115 170 214 106 155 170 191 259 55 45 141 125 131 195 12 222 224 136 174 180 124 167 145 205 191 186 205 234 112 152 125 247 87 211 211 260 222 311 152 181 236 121 92 64 215 151 73 92 225 137 211 208 163 248 331 336 214 213 189 175 273 292 258 281 306 323 321 336 309 312 316 312 283 262 255
76 350 79 118 160 199 110 77 72 68 83 68 114 174 205 185 191 168 193 164 124 120 128 63 64 130 174 154 340 200 302 120 211 108 258 196 213 190 209 184 190 187 153 173 174 171 45 263 295 293 40 169 190 117 191 144 186 226 111 204 212 174 113 81 43 34 87 35 258 149 299 273 303 303 254 269 303 281 323 297 311 293 292 332 293 269 258 257
53 42 50 298 251 154 138 107 93 80 77 95 123 205 195 36 196 167 313 142 191 135 131 134 232 144 177 198 181 200 227 75 173 132 219 159 287 199 215 256 175 179 208 132 289 193 145 233 302 123 217 311 145 145 90 30 145 95 186 237 168 117 113 138 216 351 58 200 267 94 242 291 38 286 322 20 263 274 301 290 290 298 292 289 270 274 247 255
50 10 74 185 207 152 126 131 100 59 105 136 214 216 41 131 270 90 210 70 90 56 125 148 233 114 205 152 220 177 235 148 201 163 196 186 234 181 156 187 203 187 205 252 163 251 132 256 304 343 160 286 339 149 343 357 43 141 194 201 118 255 234 303 94 252 173 270 268 285 264 272 198 244 61 44 170 213 240 291 313 295 293 280 282 281 281 271
52 92 349 245 125 132 131 123 103 128 123 184 218 228 217 221 252 125 11 126 69 115 150 221 127 226 142 191 170 158 165 179 175 193 147 231 198 207 186 158 226 207 193 159 172 195 119 178 281 331 136 307 27 110 199 187 8 53 72 112 132 103 172 138 200 176 124 242 52 290 97 261 174 217 172 187 212 226 247 264 254 245 247 256 255 262 292 277
90 73 270 41 117 127 123 109 124 146 184 204 194 203 35 131 275 257 345 16 353 98 236 159 293 129 162 201 153 161 221 163 164 203 170 215 193 280 182 235 177 180 175 185 172 144 178 147 232 296 294 86 187 200 206 155 158 170 160 199 181 2 230 111 51 137 175 180 186 257 304 258 256 198 161 199 217 229 227 246 262 270 268 259 260 273 282 282
267 118 228 122 137 135 114 99 124 183 197 332 57 108 76 214 270 1 50 49 107 318 149 137 146 150 175 120 244 194 153 157 177 174 189 219 180 225 234 180 156 142 124 139 182 203 117 146 185 146 64 237 241 238 175 181 185 180 180 198 184 134 149 149 257 27 105 145 236 129 262 277 239 193 180 190 216 210 231 218 256 271 267 263 270 259 248 278
144 138 229 163 159 149 131 125 160 114 109 189 215 164 191 274 15 3 14 18 54 16 75 97 343 123 66 137 167 175 139 173 181 176 233 183 217 166 317 30 337 156 139 178 192 219 163 147 112 186 200 203 216 239 279 267 348 75 162 230 178 180 126 145 198 253 8 245 126 181 53 271 182 184 193 202 205 202 215 174 224 260 265 267 269 264 274 235
154 152 333 155 178 169 124 161 127 133 165 208 110 114 154 178 225 158 175 166 70 227 334 150 205 129 264 117 124 98 157 178 167 200 191 206 257 184 286 352 225 168 136 351 33 282 93 102 118 292 317 314 318 316 16 54 206 300 304 111 132 189 185 182 176 186 173 200 219 255 220 265 103 315 209 186 234 236 74 216 287 300 280 303 330 320 307 323
53 99 22 193 70 34 166 183 186 188 172 104 168 186 173 170 178 161 201 186 157 139 197 179 40 197 170 121 101 143 206 166 253 172 283 216 185 142 9 13 223 172 157 223 163 208 157 258 151 145 27 337 348 342 350 329 97 188 188 209 190 178 140 143 98 86 188 208 196 154 233 258 320 323 347 37 31 31 14 255 191 339 314 314 335 335 336 338
137 348 29 311 19 270 189 220 185 168 178 175 167 186 161 162 205 187 173 186 148 157 138 257 199 139 108 128 62 50 77 139 211 303 99 154 179 2 340 35 10 126 68 334 152 226 179 181 150 180 200 204 212 198 210 214 197 220 206 203 201 180 175 124 212 183 212 238 192 200 241 253 207 331 71 356 27 347 279 253 297 214 221 248 284 300 317 330
159 155 272 31 126 219 279 24 133 157 177 179 188 200 167 193 229 213 172 188 179 184 189 139 42 112 144 125 146 204 221 77 113 242 71 250 298 346 249 350 58 116 318 26 2 116 180 203 194 192 199 215 221 208 249 122 108 181 235 188 201 203 187 186 119 177 215 222 195 237 232 256 253 233 263 293 345 26 323 324 316 317 316 319 293 277 260 260
44 124 160 190 49 263 236 173 174 152 188 168 197 159 195 195 154 198 186 188 190 178 181 168 169 168 211 178 199 207 186 91 67 72 209 181 258 218 294 120 88 51 343 133 344 85 83 201 225 217 226 240 179 176 202 163 181 206 204 205 200 189 183 183 189 219 210 201 250 233 229 242 259 254 234 263 266 269 265 265 288 292 285 280 288 275 276 276
139 246 126 227 143 201 194 223 190 173 255 166 210 155 192 183 184 185 159 241 120 181 164 252 199 198 177 182 150 188 172 200 160 208 152 227 340 309 316 325 162 327 11 66 307 149 156 201 278 152 250 112 161 143 152 187 197 200 207 200 196 198 186 195 215 223 182 191 230 241 195 223 253 257 237 230 241 228 231 237 230 237 274 298 303 313 310 304
347 9 248 343 144 302 202 71 159 167 190 176 201 159 180 186 200 196 159 149 139 217 197 210 203 206 198 184 174 192 173 161 228 221 186 178 196 151 217 303 296 5 64 37 19 185 118 242 179 112 196 115 215 138 109 148 167 188 212 217 213 199 203 205 216 220 212 219 233 249 238 233 247 269 117 228 219 197 224 201 353 299 273 276 282 278 274 274
197 167 300 4 73 53 344 94 153 167 194 182 186 213 193 194 204 184 173 162 179 209 180 221 214 194 200 197 187 202 196 199 191 191 202 181 20 70 248 189 107 350 34 130 80 318 138 264 96 70 70 251 218 224 136 136 135 254 257 232 212 209 221 230 241 251 272 279 268 266 272 269 255 230 271 240 227 204 262 265 243 240 249 247 245 250 261 280
90 20 39 91 54 260 101 71 145 171 178 187 208 215 203 203 210 182 203 188 187 172 174 212 213 168 195 200 213 223 209 205 217 206 180 161 199 188 167 268 147 149 47 65 55 342 104 238 59 64 233 269 184 173 206 159 174 212 258 253 232 197 195 200 211 217 200 222 233 253 265 256 264 130 256 277 125 210 231 234 240 252 244 251 255 259 254 257
91 318 68 35 17 250 151 210 121 122 219 203 202 204 192 215 176 140 213 241 208 192 186 204 198 169 199 200 216 222 221 210 221 227 177 190 200 172 182 179 162 168 178 181 181 128 175 142 145 142 199 245 188 176 159 129 94 305 247 233 229 207 200 219 242 220 215 208 221 229 241 248 266 197 271 281 261 247 268 242 237 252 251 243 251 252 246 245